User: anonymous   Login
Location: Wildcat Hills Observatory
(41.6350°N, 103.6812°W)
Time: 08:11:13
(UTC-06:00)
Language:

Cosmos 1634 Rocket - Orbit

View from above orbital plane
View from above orbital plane
View from above satellite
View from above satellite

Ground track
Ground track

The orbit data is extracted from the following two-line orbital elements,

1 15598U 85022B   16150.76116567  .00000012  00000-0 -30786-5 0  9990
2 15598  82.9383  32.1033 0023479 100.8681 321.3831 13.76543972567718
Epoch (UTC): 29 May 2016 18:16:04
Eccentricity: 0.0023479
inclination: 82.9383°
perigee height: 959 km
apogee height: 993 km
right ascension of ascending node: 32.1033°
argument of perigee: 100.8681°
revolutions per day: 13.76543972
mean anomaly at epoch: 321.3831°
orbit number at epoch: 56771

The dashed part of the orbit path shows where the satellite is in the earth's shadow,  

DLR